This is the latest recevied weather packets stored in our database for station/object W7TTE. If no packets are shown the sender has not sent any weather packets the latest 10 day(s).
| Time | Temp. | Humidity | Pressure | Rain* | Wind** | Luminosity | Snow |
|---|---|---|---|---|---|---|---|
| 1777326661 | 27.22° C | 20% | 1013.8 hPa | 0 mm | - | 603 W/m² | - |
| 1777326357 | 27.78° C | 20% | 1014 hPa | 0 mm | - | 522 W/m² | - |
| 1777326055 | 27.22° C | 20% | 1014.1 hPa | 0 mm | - | 604 W/m² | - |
| 1777325752 | 27.22° C | 21% | 1014.1 hPa | 0 mm | - | 637 W/m² | - |
| 1777325450 | 27.22° C | 20% | 1014.1 hPa | 0 mm | - | 647 W/m² | - |
| 1777325148 | 26.67° C | 21% | 1014.2 hPa | 0 mm | - | 657 W/m² | - |
| 1777324844 | 27.22° C | 21% | 1014.3 hPa | 0 mm | - | 666 W/m² | - |
| 1777324543 | 27.22° C | 20% | 1014.5 hPa | 0 mm | - | 675 W/m² | - |
| 1777324239 | 26.67° C | 20% | 1014.6 hPa | 0 mm | - | 687 W/m² | - |
| 1777323937 | 26.67° C | 20% | 1014.6 hPa | 0 mm | - | 696 W/m² | - |
| 1777323634 | 27.22° C | 20% | 1014.4 hPa | 0 mm | - | 705 W/m² | - |
| 1777323331 | 27.22° C | 20% | 1014.6 hPa | 0 mm | - | 712 W/m² | - |
| 1777323030 | 27.22° C | 19% | 1014.6 hPa | 0 mm | - | 720 W/m² | - |
| 1777322727 | 26.67° C | 20% | 1014.5 hPa | 0 mm | - | 727 W/m² | - |
| 1777322425 | 27.22° C | 20% | 1014.7 hPa | 0 mm | - | 734 W/m² | - |
| 1777322121 | 26.67° C | 21% | 1014.6 hPa | 0 mm | - | 740 W/m² | - |
| 1777321818 | 26.67° C | 20% | 1014.8 hPa | 0 mm | - | 746 W/m² | - |
| 1777321514 | 26.67° C | 21% | 1014.8 hPa | 0 mm | - | 753 W/m² | - |
| 1777321212 | 26.67° C | 21% | 1015 hPa | 0 mm | - | 758 W/m² | - |
| 1777320909 | 26.67° C | 22% | 1014.9 hPa | 0 mm | - | 763 W/m² | - |
| 1777320607 | 26.11° C | 22% | 1014.8 hPa | 0 mm | - | 768 W/m² | - |
| 1777320304 | 26.11° C | 21% | 1015.1 hPa | 0 mm | - | 774 W/m² | - |
| 1777320000 | 25.56° C | 21% | 1015.1 hPa | 0 mm | - | 777 W/m² | - |
| 1777319698 | 26.67° C | 21% | 1015.3 hPa | 0 mm | - | 780 W/m² | - |
| 1777319394 | 26.11° C | 22% | 1015.2 hPa | 0 mm | - | 783 W/m² | - |
* Rain latest hour (hover to see other rain measurements)
** Current wind speed in m/s (hover to see current wind gust speed)